sat.trackr.live / text

‹ back to catalog

STARLINK-36066

NORAD 66592 · 2025-270E

PAYLOAD ACTIVE UNKNOWN

§ Identity

Operator
Country
US
Launch date
2025-11-22
Launch site
AFETR
Launch vehicle
Mass (kg)
RCS (m²)

Purposes: comms

External: N2YO · Heavens-Above · Gunter

§ Orbital elements

Epoch: 2026-05-24T20:49:18.588864Z

Period
94.27 min
Inclination
42.9982°
Eccentricity
0.0001252
Mean motion
15.27604441 rev/d
Perigee alt
482.1 km
Apogee alt
483.8 km
Semi-major
6,861.1 km
B*
6.8237e-4
RAAN
346.2037°
Arg perigee
271.6813°
Mean anomaly
88.3896°
Rev number
2,925

§ Raw data

STARLINK-360661 66592U 25270E   26144.86757626  .00018577  00000+0  68237-3 0  99942 66592  42.9982 346.2037 0001252 271.6813  88.3896 15.27604441 29251

JSON: /api/v1/satellites/66592 · /tle

For live sub-satellite position, see the globe view (requires WebGL).

§ Visibility from observer

Set your observer location to see the next 7 days of passes ≥ 10°. The values pass through the URL so the page stays shareable.

No JS? Fill the form by hand. The geolocation button needs JavaScript.